NORTHEAST SUFFOLK  -  Special Weather Statement Special Weather Statement        NORTHERN NASSAU  -  Special Weather Statement Special Weather Statement        NORTHWEST SUFFOLK  -  Special Weather Statement Special Weather Statement        SOUTHEAST SUFFOLK  -  Special Weather Statement Special Weather Statement        SOUTHERN NASSAU  -  Special Weather Statement Special Weather Statement        SOUTHWEST SUFFOLK  -  Special Weather Statement Special Weather Statement      

Active alerts

Northern Nassau
  Details for Northern Nassau Special Weather Statement
Southern Nassau
  Details for Southern Nassau Special Weather Statement
Northwest Suffolk
  Details for Northwest Suffolk Special Weather Statement
Southwest Suffolk
  Details for Southwest Suffolk Special Weather Statement
Northeast Suffolk
  Details for Northeast Suffolk Special Weather Statement
Southeast Suffolk
  Details for Southeast Suffolk Special Weather Statement


WXM80 ListenWXM80 Stop

You find our weather info also at:

UK Metoffice

WeatherCloud

Weather Underground

Northeastern Weather Network

AWEKAS

Citizen Weather Observer Program (CWOP)

HAMweather, WeatherForYou, PWS Weather


Weather Underground History page Text

Daily Summary for March 5, 2016 Units:  English    Metric   Both
« Previous Day
Next Day »
Daily Weekly Monthly Yearly Custom
  High: Low: Average:
Temperature: 40.3 °F 28.4 °F 33.9 °F
Dew Point: 25.1 °F 12.9 °F 18.8 °F
Humidity: 79 % 34 % 56 %
Wind Speed: 10.0 mph 0.0 mph 2.6 mph
Wind Gust: 18.4 mph - -
Wind:- - SW
Pressure: 30.20 in 30.06 in -
Precipitation: 0.00 in    
Historical Graphs
 
 
Tabular Data for March 5, 2016
Time Temperature Dew Point Pressure Wind Wind Speed Wind Gust Humidity Rainfall Rate (Hourly)
00:03 32.8 °F 24.8 °F 30.06 in NNE 6.6 mph 16.1 mph 72 % 0.00 in
00:08 32.8 °F 25.1 °F 30.07 in NNE 6.0 mph 8.0 mph 73 % 0.00 in
00:13 32.7 °F 24.7 °F 30.06 in NNW 10.0 mph 15.0 mph 72 % 0.00 in
00:18 32.6 °F 24.6 °F 30.06 in North 8.1 mph 12.0 mph 72 % 0.00 in
00:23 32.6 °F 24.6 °F 30.07 in NNE 7.8 mph 11.5 mph 72 % 0.00 in
00:28 32.6 °F 24.9 °F 30.07 in NNE 4.7 mph 10.4 mph 73 % 0.00 in
00:33 32.5 °F 24.8 °F 30.07 in NNE 6.6 mph 13.0 mph 73 % 0.00 in
00:38 32.5 °F 24.5 °F 30.07 in NE 5.7 mph 10.4 mph 72 % 0.00 in
00:43 32.4 °F 24.4 °F 30.07 in North 10.0 mph 13.8 mph 72 % 0.00 in
00:48 32.4 °F 24.4 °F 30.07 in North 8.6 mph 10.4 mph 72 % 0.00 in
00:54 32.3 °F 24.6 °F 30.07 in NNW 8.8 mph 12.7 mph 73 % 0.00 in
00:59 32.4 °F 25.0 °F 30.08 in NNE 4.8 mph 11.5 mph 74 % 0.00 in
01:04 32.4 °F 24.7 °F 30.08 in NNW 7.2 mph 13.8 mph 73 % 0.00 in
01:11 32.3 °F 24.6 °F 30.08 in NNW 6.8 mph 13.0 mph 73 % 0.00 in
01:16 32.3 °F 24.9 °F 30.08 in NNW 8.1 mph 12.0 mph 74 % 0.00 in
01:22 32.3 °F 24.6 °F 30.08 in North 8.2 mph 13.0 mph 73 % 0.00 in
01:32 32.2 °F 24.8 °F 30.08 in North 7.8 mph 16.1 mph 74 % 0.00 in
01:37 32.2 °F 24.8 °F 30.08 in NNE 7.4 mph 12.7 mph 74 % 0.00 in
01:46 32.1 °F 24.7 °F 30.08 in NNE 7.8 mph 17.3 mph 74 % 0.00 in
01:51 32.0 °F 24.6 °F 30.08 in NNW 5.6 mph 11.5 mph 74 % 0.00 in
01:59 31.9 °F 24.9 °F 30.08 in NNW 9.2 mph 18.4 mph 75 % 0.00 in
02:08 31.7 °F 24.7 °F 30.08 in NNE 4.6 mph 13.8 mph 75 % 0.00 in
02:19 31.6 °F 24.6 °F 30.08 in NNW 7.3 mph 14.0 mph 75 % 0.00 in
02:33 31.4 °F 24.4 °F 30.08 in NW 5.5 mph 14.0 mph 75 % 0.00 in
03:30 31.0 °F 23.7 °F 30.08 in North 3.9 mph 14.0 mph 74 % 0.00 in
04:06 30.5 °F 22.9 °F 30.09 in North 3.6 mph 11.5 mph 73 % 0.00 in
04:16 30.3 °F 22.4 °F 30.10 in North 2.6 mph 7.0 mph 72 % 0.00 in
04:21 30.2 °F 22.6 °F 30.10 in NNW 1.9 mph 4.6 mph 73 % 0.00 in
04:26 30.1 °F 22.5 °F 30.10 in North 2.9 mph 5.0 mph 73 % 0.00 in
04:32 30.0 °F 22.4 °F 30.11 in NNW 3.5 mph 10.0 mph 73 % 0.00 in
04:37 30.0 °F 22.4 °F 30.11 in NW 2.9 mph 6.0 mph 73 % 0.00 in
04:42 29.9 °F 22.3 °F 30.11 in WNW 1.9 mph 4.6 mph 73 % 0.00 in
04:47 29.8 °F 21.9 °F 30.12 in NNW 4.9 mph 9.2 mph 72 % 0.00 in
04:52 29.8 °F 21.9 °F 30.12 in WNW 4.2 mph 8.0 mph 72 % 0.00 in
04:57 29.8 °F 21.9 °F 30.12 in NNW 3.4 mph 5.8 mph 72 % 0.00 in
05:03 29.7 °F 21.8 °F 30.12 in NNW 2.1 mph 6.9 mph 72 % 0.00 in
05:09 29.7 °F 21.8 °F 30.12 in NW 4.5 mph 7.0 mph 72 % 0.00 in
05:17 29.6 °F 21.0 °F 30.13 in North 4.3 mph 9.2 mph 70 % 0.00 in
05:33 29.4 °F 21.5 °F 30.13 in NNW 0.5 mph 8.1 mph 72 % 0.00 in
05:38 29.3 °F 21.1 °F 30.13 in NNW 1.5 mph 3.5 mph 71 % 0.00 in
05:43 29.2 °F 21.0 °F 30.13 in NNW 3.0 mph 6.0 mph 71 % 0.00 in
05:48 29.1 °F 21.2 °F 30.13 in NNE 3.3 mph 8.1 mph 72 % 0.00 in
05:53 28.9 °F 21.0 °F 30.14 in NW 3.7 mph 7.0 mph 72 % 0.00 in
05:58 28.8 °F 20.9 °F 30.14 in North 5.2 mph 8.1 mph 72 % 0.00 in
06:03 28.8 °F 20.9 °F 30.14 in North 0.8 mph 3.0 mph 72 % 0.00 in
06:19 28.5 °F 20.6 °F 30.15 in NNW 2.6 mph 9.2 mph 72 % 0.00 in
06:24 28.5 °F 20.6 °F 30.15 in NW 1.7 mph 4.6 mph 72 % 0.00 in
06:30 28.4 °F 20.5 °F 30.16 in North 2.4 mph 7.0 mph 72 % 0.00 in
06:35 28.4 °F 20.5 °F 30.16 in NNW 3.2 mph 8.1 mph 72 % 0.00 in
06:40 28.4 °F 20.5 °F 30.16 in NW 3.1 mph 4.6 mph 72 % 0.00 in
06:45 28.5 °F 20.6 °F 30.16 in NNW 4.1 mph 6.9 mph 72 % 0.00 in
06:50 28.6 °F 20.4 °F 30.16 in NNE 4.8 mph 9.2 mph 71 % 0.00 in
06:55 28.8 °F 20.6 °F 30.17 in North 5.1 mph 9.2 mph 71 % 0.00 in
07:00 28.9 °F 20.7 °F 30.17 in NNW 3.2 mph 5.0 mph 71 % 0.00 in
07:05 29.1 °F 20.9 °F 30.17 in NNW 1.6 mph 5.8 mph 71 % 0.00 in
07:10 29.3 °F 20.7 °F 30.17 in NNW 2.7 mph 5.8 mph 70 % 0.00 in
07:15 29.5 °F 20.6 °F 30.18 in North 3.8 mph 9.0 mph 69 % 0.00 in
07:20 29.7 °F 20.8 °F 30.18 in WNW 4.9 mph 8.1 mph 69 % 0.00 in
07:26 29.9 °F 20.6 °F 30.18 in NNW 5.1 mph 6.9 mph 68 % 0.00 in
07:31 30.0 °F 20.4 °F 30.18 in NW 3.0 mph 8.1 mph 67 % 0.00 in
07:36 30.1 °F 20.5 °F 30.18 in NW 4.1 mph 6.9 mph 67 % 0.00 in
07:41 30.3 °F 19.9 °F 30.19 in WNW 4.3 mph 6.9 mph 65 % 0.00 in
07:46 30.4 °F 19.7 °F 30.19 in NW 5.0 mph 6.9 mph 64 % 0.00 in
07:51 30.5 °F 19.8 °F 30.18 in NNW 5.6 mph 10.4 mph 64 % 0.00 in
07:56 30.7 °F 19.6 °F 30.19 in NNE 5.8 mph 8.1 mph 63 % 0.00 in
08:01 30.8 °F 19.3 °F 30.18 in NW 4.6 mph 10.4 mph 62 % 0.00 in
08:06 30.9 °F 19.4 °F 30.18 in NNW 3.2 mph 5.8 mph 62 % 0.00 in
08:11 31.2 °F 19.3 °F 30.18 in NNE 5.7 mph 12.7 mph 61 % 0.00 in
08:17 31.3 °F 18.6 °F 30.18 in WNW 5.5 mph 7.0 mph 59 % 0.00 in
08:22 31.4 °F 18.7 °F 30.19 in North 4.0 mph 11.5 mph 59 % 0.00 in
08:27 31.5 °F 18.0 °F 30.19 in North 4.9 mph 7.0 mph 57 % 0.00 in
08:32 31.6 °F 18.5 °F 30.19 in NNW 5.0 mph 5.8 mph 58 % 0.00 in
08:37 31.8 °F 17.9 °F 30.19 in NNW 2.9 mph 6.9 mph 56 % 0.00 in
08:42 32.0 °F 18.1 °F 30.19 in North 3.7 mph 7.0 mph 56 % 0.00 in
08:47 32.0 °F 17.6 °F 30.19 in NNW 4.8 mph 10.4 mph 55 % 0.00 in
08:52 32.0 °F 17.6 °F 30.19 in North 7.1 mph 10.4 mph 55 % 0.00 in
08:57 32.1 °F 17.7 °F 30.19 in NNE 6.5 mph 11.0 mph 55 % 0.00 in
09:02 32.3 °F 17.5 °F 30.19 in NNE 6.6 mph 11.5 mph 54 % 0.00 in
09:08 32.3 °F 17.5 °F 30.19 in NNW 6.1 mph 9.2 mph 54 % 0.00 in
09:13 32.5 °F 17.2 °F 30.18 in NNE 5.7 mph 10.4 mph 53 % 0.00 in
09:18 32.9 °F 17.6 °F 30.18 in NNE 6.0 mph 9.2 mph 53 % 0.00 in
09:23 33.0 °F 16.8 °F 30.18 in NNE 4.9 mph 7.0 mph 51 % 0.00 in
09:28 33.4 °F 17.2 °F 30.18 in NNW 5.0 mph 10.4 mph 51 % 0.00 in
09:33 33.6 °F 16.9 °F 30.18 in NNE 5.2 mph 8.1 mph 50 % 0.00 in
09:38 33.8 °F 17.1 °F 30.19 in NE 4.2 mph 6.9 mph 50 % 0.00 in
09:43 34.1 °F 17.4 °F 30.19 in NNE 4.6 mph 9.2 mph 50 % 0.00 in
09:48 34.4 °F 18.1 °F 30.19 in NW 3.2 mph 10.4 mph 51 % 0.00 in
09:53 34.6 °F 17.8 °F 30.19 in NNW 2.6 mph 5.8 mph 50 % 0.00 in
09:59 34.7 °F 17.0 °F 30.19 in ENE 1.4 mph 5.8 mph 48 % 0.00 in
10:04 34.9 °F 16.7 °F 30.19 in WNW 6.6 mph 9.2 mph 47 % 0.00 in
10:09 34.9 °F 17.7 °F 30.20 in North 3.6 mph 6.9 mph 49 % 0.00 in
10:14 34.8 °F 15.6 °F 30.19 in North 2.9 mph 3.5 mph 45 % 0.00 in
10:19 35.2 °F 18.9 °F 30.19 in WNW 1.3 mph 4.0 mph 51 % 0.00 in
10:24 35.5 °F 16.7 °F 30.19 in West 4.5 mph 6.9 mph 46 % 0.00 in
10:29 35.7 °F 15.9 °F 30.20 in WNW 2.0 mph 4.6 mph 44 % 0.00 in
10:34 36.2 °F 16.4 °F 30.19 in NE 2.8 mph 5.8 mph 44 % 0.00 in
10:39 36.8 °F 18.9 °F 30.19 in North 2.8 mph 4.0 mph 48 % 0.00 in
10:44 37.1 °F 17.7 °F 30.19 in North 2.7 mph 4.6 mph 45 % 0.00 in
10:50 37.3 °F 16.8 °F 30.19 in WNW 4.2 mph 8.0 mph 43 % 0.00 in
10:55 37.1 °F 17.7 °F 30.19 in WNW 3.9 mph 6.9 mph 45 % 0.00 in
11:00 37.0 °F 14.9 °F 30.19 in WNW 3.8 mph 5.8 mph 40 % 0.00 in
11:05 37.0 °F 15.5 °F 30.19 in North 2.2 mph 7.0 mph 41 % 0.00 in
11:10 36.9 °F 15.9 °F 30.19 in NNE 3.0 mph 6.9 mph 42 % 0.00 in
11:15 36.9 °F 17.0 °F 30.19 in WNW 1.9 mph 4.6 mph 44 % 0.00 in
11:20 36.9 °F 14.8 °F 30.18 in NW 1.3 mph 4.0 mph 40 % 0.00 in
11:25 36.8 °F 16.9 °F 30.18 in North 1.9 mph 3.5 mph 44 % 0.00 in
11:35 37.3 °F 14.6 °F 30.18 in WNW 0.5 mph 3.5 mph 39 % 0.00 in
11:41 37.3 °F 15.2 °F 30.18 in NNE 1.8 mph 4.0 mph 40 % 0.00 in
11:46 37.5 °F 16.5 °F 30.18 in NNE 2.2 mph 5.8 mph 42 % 0.00 in
11:51 37.4 °F 15.2 °F 30.17 in NW 2.6 mph 3.5 mph 40 % 0.00 in
11:56 36.9 °F 15.4 °F 30.17 in NNE 1.2 mph 3.5 mph 41 % 0.00 in
12:01 36.7 °F 13.4 °F 30.17 in NNW 0.4 mph 2.3 mph 38 % 0.00 in
12:06 36.6 °F 13.9 °F 30.17 in WNW 0.7 mph 3.0 mph 39 % 0.00 in
12:16 36.8 °F 15.8 °F 30.17 in North 2.2 mph 3.5 mph 42 % 0.00 in
12:21 36.9 °F 16.5 °F 30.16 in NNW 1.9 mph 5.8 mph 43 % 0.00 in
12:26 37.2 °F 17.8 °F 30.16 in SW 0.9 mph 3.0 mph 45 % 0.00 in
12:32 37.4 °F 16.9 °F 30.16 in SW 3.2 mph 4.6 mph 43 % 0.00 in
12:37 37.4 °F 16.9 °F 30.16 in SW 4.2 mph 6.9 mph 43 % 0.00 in
12:42 37.3 °F 16.3 °F 30.15 in SW 2.1 mph 4.0 mph 42 % 0.00 in
12:47 37.5 °F 16.5 °F 30.15 in SSW 3.0 mph 4.6 mph 42 % 0.00 in
12:52 37.7 °F 15.5 °F 30.14 in SW 2.8 mph 4.6 mph 40 % 0.00 in
12:57 37.9 °F 16.3 °F 30.13 in NE 0.4 mph 1.2 mph 41 % 0.00 in
13:02 38.1 °F 15.3 °F 30.14 in WSW 0.8 mph 2.0 mph 39 % 0.00 in
13:07 38.3 °F 16.6 °F 30.14 in SW 3.0 mph 4.6 mph 41 % 0.00 in
13:12 38.4 °F 16.7 °F 30.14 in Calm   2.3 mph 41 % 0.00 in
13:17 38.5 °F 15.7 °F 30.14 in West 3.1 mph 3.5 mph 39 % 0.00 in
13:23 38.6 °F 15.1 °F 30.14 in SW 6.1 mph 8.1 mph 38 % 0.00 in
13:28 38.4 °F 14.4 °F 30.14 in WSW 2.8 mph 4.6 mph 37 % 0.00 in
13:33 38.4 °F 13.7 °F 30.14 in West 1.2 mph 3.5 mph 36 % 0.00 in
13:38 38.6 °F 16.9 °F 30.14 in SSW 3.0 mph 7.0 mph 41 % 0.00 in
13:43 39.0 °F 14.9 °F 30.13 in WSW 4.2 mph 6.9 mph 37 % 0.00 in
13:48 39.3 °F 15.2 °F 30.13 in NW 3.7 mph 8.1 mph 37 % 0.00 in
14:03 40.2 °F 16.6 °F 30.14 in West 3.1 mph 5.8 mph 38 % 0.00 in
14:08 40.2 °F 17.8 °F 30.14 in SW 3.6 mph 6.0 mph 40 % 0.00 in
14:14 40.2 °F 16.0 °F 30.14 in NW 2.3 mph 3.5 mph 37 % 0.00 in
14:19 40.1 °F 17.1 °F 30.14 in SSW 3.1 mph 4.6 mph 39 % 0.00 in
14:24 40.1 °F 15.9 °F 30.13 in WSW 0.1 mph 1.2 mph 37 % 0.00 in
14:29 40.2 °F 16.0 °F 30.14 in West 3.6 mph 4.6 mph 37 % 0.00 in
14:34 40.3 °F 14.8 °F 30.14 in West 3.4 mph 4.6 mph 35 % 0.00 in
14:39 40.2 °F 14.0 °F 30.14 in WNW 3.2 mph 4.6 mph 34 % 0.00 in
14:44 40.1 °F 14.6 °F 30.14 in WSW 1.3 mph 5.8 mph 35 % 0.00 in
14:49 39.7 °F 13.6 °F 30.14 in West 0.9 mph 3.5 mph 34 % 0.00 in
14:54 39.6 °F 14.8 °F 30.14 in West 1.4 mph 3.5 mph 36 % 0.00 in
14:59 39.6 °F 14.2 °F 30.14 in WSW 4.4 mph 5.8 mph 35 % 0.00 in
15:05 39.5 °F 13.4 °F 30.14 in SW 1.5 mph 6.0 mph 34 % 0.00 in
15:10 39.5 °F 13.4 °F 30.14 in WNW 2.5 mph 4.6 mph 34 % 0.00 in
15:15 39.3 °F 13.2 °F 30.13 in West 3.1 mph 5.0 mph 34 % 0.00 in
15:20 39.3 °F 13.9 °F 30.13 in WNW 1.4 mph 3.0 mph 35 % 0.00 in
15:25 39.2 °F 13.8 °F 30.13 in WNW 3.3 mph 5.8 mph 35 % 0.00 in
15:30 39.1 °F 13.1 °F 30.13 in NW 0.9 mph 3.0 mph 34 % 0.00 in
15:35 39.1 °F 14.4 °F 30.13 in SW 1.1 mph 3.5 mph 36 % 0.00 in
15:40 39.1 °F 13.1 °F 30.13 in West 0.1 mph 1.2 mph 34 % 0.00 in
15:45 39.1 °F 13.7 °F 30.13 in Calm   1.2 mph 35 % 0.00 in
15:50 38.9 °F 12.9 °F 30.13 in WSW 3.3 mph 5.0 mph 34 % 0.00 in
15:56 38.9 °F 12.9 °F 30.13 in West 2.1 mph 3.5 mph 34 % 0.00 in
16:01 38.8 °F 14.1 °F 30.13 in SW 2.9 mph 3.5 mph 36 % 0.00 in
16:06 38.7 °F 13.4 °F 30.13 in WSW 2.6 mph 4.0 mph 35 % 0.00 in
16:11 38.6 °F 13.9 °F 30.13 in SW 2.4 mph 4.0 mph 36 % 0.00 in
16:16 38.6 °F 14.5 °F 30.13 in SW 1.7 mph 4.0 mph 37 % 0.00 in
16:21 38.6 °F 13.3 °F 30.13 in SSW 2.2 mph 3.5 mph 35 % 0.00 in
16:26 38.5 °F 13.8 °F 30.13 in WSW 3.3 mph 4.0 mph 36 % 0.00 in
16:31 38.5 °F 13.8 °F 30.13 in West 1.1 mph 3.5 mph 36 % 0.00 in
16:36 38.4 °F 13.7 °F 30.13 in SW 1.1 mph 3.5 mph 36 % 0.00 in
16:41 38.4 °F 14.4 °F 30.13 in SW 0.1 mph 2.3 mph 37 % 0.00 in
16:47 38.3 °F 13.6 °F 30.13 in SW 0.3 mph 2.0 mph 36 % 0.00 in
16:52 38.2 °F 14.2 °F 30.13 in SW 1.3 mph 2.3 mph 37 % 0.00 in
16:57 38.1 °F 14.1 °F 30.13 in SW 1.7 mph 3.5 mph 37 % 0.00 in
17:02 38.0 °F 13.4 °F 30.14 in Calm   1.2 mph 36 % 0.00 in
17:07 37.9 °F 13.9 °F 30.14 in Calm     37 % 0.00 in
17:12 37.9 °F 14.5 °F 30.14 in Calm   1.2 mph 38 % 0.00 in
17:17 37.8 °F 14.4 °F 30.14 in SW 1.3 mph 2.3 mph 38 % 0.00 in
17:22 37.7 °F 14.3 °F 30.14 in SW 2.6 mph 3.5 mph 38 % 0.00 in
17:27 37.6 °F 14.2 °F 30.14 in Calm     38 % 0.00 in
17:33 37.6 °F 14.8 °F 30.14 in SW 0.7 mph 2.3 mph 39 % 0.00 in
17:38 37.5 °F 14.2 °F 30.14 in Calm     38 % 0.00 in
17:43 37.5 °F 14.2 °F 30.14 in SW 0.4 mph 2.3 mph 38 % 0.00 in
17:48 37.3 °F 14.0 °F 30.15 in Calm     38 % 0.00 in
17:53 37.3 °F 15.2 °F 30.15 in SW 0.1 mph 1.2 mph 40 % 0.00 in
17:58 37.2 °F 14.5 °F 30.15 in Calm     39 % 0.00 in
18:03 37.0 °F 14.3 °F 30.15 in Calm     39 % 0.00 in
18:08 36.8 °F 14.7 °F 30.15 in SW 0.1 mph   40 % 0.00 in
18:13 36.7 °F 14.6 °F 30.15 in Calm     40 % 0.00 in
18:18 36.5 °F 14.4 °F 30.15 in Calm     40 % 0.00 in
18:24 36.4 °F 14.3 °F 30.15 in Calm     40 % 0.00 in
18:29 36.1 °F 15.2 °F 30.16 in Calm     42 % 0.00 in
18:34 36.0 °F 15.6 °F 30.16 in Calm     43 % 0.00 in
18:39 35.8 °F 16.0 °F 30.16 in Calm     44 % 0.00 in
18:44 35.6 °F 16.3 °F 30.16 in Calm     45 % 0.00 in
18:49 35.3 °F 16.0 °F 30.16 in Calm     45 % 0.00 in
18:54 35.1 °F 16.9 °F 30.17 in Calm     47 % 0.00 in
18:59 35.0 °F 17.3 °F 30.16 in Calm     48 % 0.00 in
19:04 34.8 °F 18.0 °F 30.16 in Calm     50 % 0.00 in
19:09 34.5 °F 17.3 °F 30.16 in Calm   1.2 mph 49 % 0.00 in
19:15 34.2 °F 17.0 °F 30.16 in Calm   1.2 mph 49 % 0.00 in
19:20 34.0 °F 17.3 °F 30.16 in SW 0.4 mph 1.2 mph 50 % 0.00 in
19:25 33.7 °F 18.4 °F 30.17 in SW 0.2 mph 1.2 mph 53 % 0.00 in
19:30 33.5 °F 19.5 °F 30.17 in SW 1.6 mph 3.5 mph 56 % 0.00 in
19:35 33.4 °F 19.8 °F 30.17 in SSW 1.7 mph 3.5 mph 57 % 0.00 in
19:40 33.2 °F 20.0 °F 30.17 in SSW 1.2 mph 3.5 mph 58 % 0.00 in
19:45 33.0 °F 20.6 °F 30.17 in SSW 0.4 mph 1.2 mph 60 % 0.00 in
19:50 32.9 °F 20.5 °F 30.17 in SSW 0.8 mph 2.3 mph 60 % 0.00 in
19:55 32.8 °F 20.8 °F 30.17 in SSW 1.5 mph 3.5 mph 61 % 0.00 in
20:00 32.6 °F 21.0 °F 30.17 in SSW 0.8 mph 2.3 mph 62 % 0.00 in
20:06 32.5 °F 21.3 °F 30.17 in SSW 1.4 mph 2.3 mph 63 % 0.00 in
20:11 32.3 °F 21.5 °F 30.17 in SSW 0.9 mph 2.3 mph 64 % 0.00 in
20:16 32.2 °F 21.4 °F 30.17 in SSW 0.2 mph 2.3 mph 64 % 0.00 in
20:21 32.0 °F 21.6 °F 30.17 in SSW 0.6 mph 2.3 mph 65 % 0.00 in
20:26 31.9 °F 21.8 °F 30.17 in SSW 1.0 mph 2.3 mph 66 % 0.00 in
20:31 31.8 °F 21.7 °F 30.17 in SSW 0.4 mph 2.3 mph 66 % 0.00 in
20:36 31.6 °F 21.9 °F 30.17 in SSW 0.7 mph 2.3 mph 67 % 0.00 in
20:41 31.5 °F 21.8 °F 30.17 in SSW 0.7 mph 2.0 mph 67 % 0.00 in
20:46 31.4 °F 21.7 °F 30.17 in SSW 0.2 mph 1.2 mph 67 % 0.00 in
20:51 31.3 °F 22.0 °F 30.17 in SSW 0.3 mph 1.2 mph 68 % 0.00 in
20:57 31.2 °F 22.2 °F 30.17 in SSW 0.6 mph 1.2 mph 69 % 0.00 in
21:02 31.1 °F 22.1 °F 30.17 in SSW 0.6 mph 2.0 mph 69 % 0.00 in
21:07 31.0 °F 22.0 °F 30.17 in Calm   1.2 mph 69 % 0.00 in
21:12 30.8 °F 21.8 °F 30.18 in SSW 0.2 mph 1.2 mph 69 % 0.00 in
21:17 30.7 °F 21.7 °F 30.18 in SSW 0.3 mph 1.2 mph 69 % 0.00 in
21:22 30.6 °F 22.0 °F 30.18 in SSW 0.4 mph 2.3 mph 70 % 0.00 in
21:27 30.5 °F 21.9 °F 30.18 in SSW 0.1 mph 2.3 mph 70 % 0.00 in
21:32 30.4 °F 21.8 °F 30.18 in Calm     70 % 0.00 in
21:37 30.4 °F 22.1 °F 30.18 in Calm     71 % 0.00 in
21:42 30.3 °F 22.4 °F 30.18 in Calm     72 % 0.00 in
21:48 30.2 °F 22.6 °F 30.18 in Calm     73 % 0.00 in
21:53 30.2 °F 22.6 °F 30.18 in Calm     73 % 0.00 in
21:58 30.1 °F 22.2 °F 30.18 in Calm     72 % 0.00 in
22:03 30.1 °F 22.2 °F 30.18 in Calm     72 % 0.00 in
22:08 30.0 °F 22.4 °F 30.18 in Calm     73 % 0.00 in
22:13 29.9 °F 22.3 °F 30.18 in Calm     73 % 0.00 in
22:18 29.9 °F 22.3 °F 30.18 in Calm     73 % 0.00 in
22:23 29.8 °F 22.2 °F 30.18 in Calm     73 % 0.00 in
22:33 29.6 °F 22.3 °F 30.18 in Calm     74 % 0.00 in
22:39 29.5 °F 22.2 °F 30.19 in Calm     74 % 0.00 in
22:44 29.5 °F 22.6 °F 30.18 in Calm     75 % 0.00 in
22:49 29.4 °F 22.8 °F 30.19 in Calm     76 % 0.00 in
22:54 29.4 °F 22.8 °F 30.19 in Calm   1.0 mph 76 % 0.00 in
22:59 29.3 °F 22.7 °F 30.19 in Calm   1.2 mph 76 % 0.00 in
23:09 29.4 °F 23.1 °F 30.19 in Calm     77 % 0.00 in
23:19 29.5 °F 23.5 °F 30.19 in Calm     78 % 0.00 in
23:24 29.5 °F 23.5 °F 30.19 in Calm     78 % 0.00 in
23:30 29.5 °F 23.5 °F 30.19 in Calm     78 % 0.00 in
23:35 29.5 °F 23.5 °F 30.19 in Calm     78 % 0.00 in
23:40 29.4 °F 23.4 °F 30.19 in Calm     78 % 0.00 in
23:45 29.4 °F 23.4 °F 30.19 in SSW 0.4 mph 1.2 mph 78 % 0.00 in
23:50 29.4 °F 23.7 °F 30.19 in Calm     79 % 0.00 in
23:55 29.4 °F 23.7 °F 30.19 in Calm     79 % 0.00 in
Crab Meadow Weather
Compliments of Weather Underground - 2.75 mb

Script developed by  Jim McMurry - jmcmurry@mwt.net Adapted for the template by  Wim van der Kuil - Leuven-Template.eu

Weather Terms: Blowing Snow Advisory - Widespread blowing snow with winds 25 to 35 mph, occasionally reducing visibility to 1/4 mile or less.